| time (UTC) | temp F | wind direction | speed knots | gust knots | rain 1hr in | rain 24hr in | rain mn in | humidity % | barometer mb |
| 20260509111524 | 51 | 55 | 0.0 | 0.0 | 0.00 | 0.00 | 0.00 | 88 | 1008.4 |
| 20260509110024 | 51 | 55 | 0.0 | 0.0 | 0.00 | 0.00 | 0.00 | 88 | 1008.3 |
| 20260509104523 | 51 | 55 | 0.0 | 0.0 | 0.00 | 0.00 | 0.00 | 88 | 1008.5 |
| 20260509103023 | 51 | 55 | 0.0 | 0.0 | 0.00 | 0.00 | 0.00 | 88 | 1008.3 |
| 20260509101554 | 51 | 55 | 0.0 | 0.0 | 0.00 | 0.00 | 0.00 | 88 | 1008.2 |
| 20260509100051 | 51 | 55 | 0.0 | 0.0 | 0.00 | 0.00 | 0.00 | 88 | 1008.2 |
| 20260509094549 | 51 | 55 | 0.0 | 0.0 | 0.00 | 0.00 | 0.00 | 88 | 1008.3 |
| 20260509093052 | 51 | 55 | 0.0 | 0.0 | 0.00 | 0.00 | 0.00 | 88 | 1008.4 |
| 20260509091550 | 51 | 56 | 0.0 | 0.0 | 0.00 | 0.00 | 0.00 | 88 | 1008.4 |
| 20260509090047 | 51 | 56 | 0.0 | 0.0 | 0.00 | 0.00 | 0.00 | 88 | 1008.4 |
| 20260509084546 | 51 | 56 | 0.0 | 0.0 | 0.00 | 0.00 | 0.00 | 88 | 1008.4 |
| 20260509083047 | 51 | 55 | 0.0 | 0.0 | 0.00 | 0.00 | 0.00 | 88 | 1008.7 |
| 20260509081548 | 51 | 56 | 0.0 | 0.0 | 0.00 | 0.00 | 0.00 | 88 | 1008.7 |
| 20260509080041 | 51 | 56 | 0.0 | 0.0 | 0.00 | 0.00 | 0.00 | 87 | 1008.7 |
| 20260509074548 | 51 | 57 | 0.0 | 0.0 | 0.00 | 0.00 | 0.00 | 86 | 1008.8 |
| 20260509073037 | 51 | 58 | 0.0 | 0.0 | 0.00 | 0.00 | 0.00 | 85 | 1008.8 |
| 20260509071536 | 51 | 59 | 0.0 | 0.0 | 0.00 | 0.00 | 0.00 | 85 | 1008.8 |
| 20260509070036 | 51 | 56 | 0.0 | 0.0 | 0.00 | 0.00 | 0.00 | 85 | 1009.0 |
| 20260509064541 | 51 | 53 | 0.0 | 0.0 | 0.00 | 0.00 | 0.00 | 87 | 1008.9 |
| 20260509063037 | 51 | 53 | 0.0 | 0.0 | 0.00 | 0.00 | 0.00 | 87 | 1008.8 |
| 20260509061532 | 51 | 53 | 0.0 | 0.0 | 0.00 | 0.00 | 0.00 | 86 | 1008.8 |
| 20260509060030 | 51 | 54 | 0.0 | 0.0 | 0.00 | 0.00 | 0.00 | 85 | 1009.0 |
| 20260509054525 | 51 | 56 | 0.0 | 0.0 | 0.00 | 0.00 | 0.00 | 82 | 1009.0 |
| 20260509053025 | 52 | 56 | 0.0 | 0.0 | 0.00 | 0.00 | 0.00 | 82 | 1009.2 |
| 20260509051526 | 52 | 53 | 0.0 | 0.0 | 0.00 | 0.00 | 0.00 | 83 | 1009.2 |
| 20260509050022 | 53 | 55 | 0.0 | 0.0 | 0.00 | 0.00 | 0.00 | 81 | 1009.2 |
| 20260509044515 | 54 | 54 | 0.0 | 0.0 | 0.00 | 0.00 | 0.00 | 79 | 1009.0 |
| 20260509043013 | 54 | 55 | 0.0 | 0.0 | 0.00 | 0.00 | 0.00 | 79 | 1009.0 |
| 20260509041512 | 54 | 55 | 0.0 | 0.0 | 0.00 | 0.00 | 0.00 | 78 | 1009.2 |
| 20260509040010 | 54 | 55 | 0.0 | 1.7 | 0.00 | 0.00 | 0.00 | 78 | 1009.3 |
| 20260509034526 | 54 | 55 | 0.0 | 0.0 | 0.00 | 0.00 | 0.00 | 78 | 1009.4 |
| 20260509033010 | 54 | 56 | 0.9 | 1.7 | 0.00 | 0.00 | 0.00 | 76 | 1009.7 |
| 20260509031508 | 54 | 57 | 0.9 | 3.5 | 0.00 | 0.00 | 0.00 | 76 | 1009.9 |
| 20260509030004 | 55 | 59 | 0.0 | 0.9 | 0.00 | 0.00 | 0.00 | 75 | 1009.9 |
| 20260509024502 | 55 | 58 | 0.0 | 1.7 | 0.00 | 0.00 | 0.00 | 73 | 1010.0 |
| 20260509023003 | 56 | 60 | 0.0 | 2.6 | 0.00 | 0.00 | 0.00 | 71 | 1010.1 |
| 20260509021502 | 57 | 60 | 0.0 | 0.0 | 0.00 | 0.00 | 0.00 | 68 | 1010.3 |
| 20260509020000 | 58 | 59 | 0.0 | 0.0 | 0.00 | 0.00 | 0.00 | 65 | 1009.9 |
| 20260509014600 | 59 | 51 | 0.0 | 0.0 | 0.00 | 0.00 | 0.00 | 63 | 1009.9 |
| 20260509013059 | 60 | 44 | 0.0 | 0.0 | 0.00 | 0.00 | 0.00 | 61 | 1009.7 |
| 20260509011557 | 61 | 44 | 0.0 | 0.0 | 0.00 | 0.00 | 0.00 | 60 | 1009.6 |
| 20260509004620 | 63 | 31 | 0.0 | 3.5 | 0.00 | 0.00 | 0.00 | 54 | 1009.7 |
| 20260509003052 | 65 | 30 | 0.0 | 3.5 | 0.00 | 0.00 | 0.00 | 49 | 1009.9 |
| 20260509001554 | 68 | 29 | 0.0 | 1.7 | 0.00 | 0.00 | 0.00 | 39 | 1009.9 |
| 20260509000050 | 68 | 28 | 0.0 | 3.5 | 0.00 | 0.00 | 0.00 | 39 | 1009.8 |
| 20260508234551 | 69 | 26 | 3.5 | 7.0 | 0.00 | 0.00 | 0.00 | 38 | 1009.7 |
| 20260508233048 | 69 | 74 | 4.3 | 8.7 | 0.00 | 0.00 | 0.00 | 37 | 1009.6 |
| 20260508231547 | 69 | 24 | 4.3 | 12.2 | 0.00 | 0.00 | 0.00 | 37 | 1009.6 |
| 20260508230048 | 70 | 40 | 5.2 | 8.7 | 0.00 | 0.00 | 0.00 | 37 | 1009.7 |
| 20260508224551 | 70 | 23 | 5.2 | 13.0 | 0.00 | 0.00 | 0.00 | 37 | 1009.9 |
| 20260508223049 | 70 | 56 | 6.1 | 13.0 | 0.00 | 0.00 | 0.00 | 36 | 1010.0 |
| 20260508221543 | 71 | 61 | 5.2 | 9.6 | 0.00 | 0.00 | 0.00 | 38 | 1009.8 |
| 20260508220040 | 71 | 337 | 6.1 | 9.6 | 0.00 | 0.00 | 0.00 | 35 | 1009.8 |
| 20260508214556 | 71 | 64 | 5.2 | 9.6 | 0.00 | 0.00 | 0.00 | 37 | 1009.9 |
| 20260508213037 | 71 | 16 | 6.1 | 18.2 | 0.00 | 0.00 | 0.00 | 37 | 1009.9 |
| 20260508211536 | 70 | 318 | 5.2 | 12.2 | 0.00 | 0.00 | 0.00 | 37 | 1010.0 |
| 20260508210037 | 71 | 16 | 6.1 | 16.5 | 0.00 | 0.00 | 0.00 | 37 | 1010.1 |
| 20260508204537 | 70 | 82 | 4.3 | 11.3 | 0.00 | 0.00 | 0.00 | 36 | 1010.2 |
| 20260508203031 | 71 | 61 | 7.0 | 12.2 | 0.00 | 0.00 | 0.00 | 36 | 1010.4 |
| 20260508201531 | 71 | 26 | 3.5 | 13.0 | 0.00 | 0.00 | 0.00 | 40 | 1010.4 |
| 20260508200027 | 71 | 300 | 6.1 | 13.0 | 0.00 | 0.00 | 0.00 | 37 | 1010.6 |
| 20260508194525 | 71 | 33 | 7.0 | 12.2 | 0.00 | 0.00 | 0.00 | 38 | 1011.0 |
| 20260508193021 | 71 | 329 | 4.3 | 10.4 | 0.00 | 0.00 | 0.00 | 38 | 1011.2 |
| 20260508191619 | 70 | 342 | 7.8 | 16.5 | 0.00 | 0.00 | 0.00 | 38 | 1011.5 |
| 20260508190036 | 70 | 350 | 4.3 | 11.3 | 0.00 | 0.00 | 0.00 | 40 | 1011.9 |
| 20260508184527 | 71 | 9 | 7.0 | 11.3 | 0.00 | 0.00 | 0.00 | 39 | 1012.4 |
| 20260508183055 | 69 | 346 | 6.1 | 13.9 | 0.00 | 0.00 | 0.00 | 39 | 1012.5 |
| 20260508181540 | 69 | 83 | 5.2 | 13.9 | 0.00 | 0.00 | 0.00 | 38 | 1012.8 |
| 20260508180047 | 69 | 117 | 5.2 | 12.2 | 0.00 | 0.00 | 0.00 | 40 | 1012.9 |
| 20260508174542 | 69 | 32 | 4.3 | 7.8 | 0.00 | 0.00 | 0.00 | 41 | 1013.1 |
| 20260508173032 | 69 | 116 | 7.0 | 12.2 | 0.00 | 0.00 | 0.00 | 38 | 1013.3 |
| 20260508171529 | 68 | 76 | 5.2 | 9.6 | 0.00 | 0.00 | 0.00 | 41 | 1013.5 |
| 20260508170107 | 68 | 306 | 4.3 | 13.9 | 0.00 | 0.00 | 0.00 | 42 | 1013.8 |
| 20260508164559 | 68 | 355 | 6.1 | 12.2 | 0.00 | 0.00 | 0.00 | 42 | 1014.1 |
| 20260508163052 | 67 | 39 | 5.2 | 9.6 | 0.00 | 0.00 | 0.00 | 42 | 1014.3 |
| 20260508161549 | 66 | 76 | 2.6 | 9.6 | 0.00 | 0.00 | 0.00 | 47 | 1014.8 |
| 20260508160046 | 65 | 11 | 6.1 | 12.2 | 0.00 | 0.00 | 0.00 | 44 | 1015.0 |
| 20260508154544 | 64 | 63 | 3.5 | 12.2 | 0.00 | 0.00 | 0.00 | 46 | 1015.1 |
| 20260508153026 | 64 | 51 | 5.2 | 9.6 | 0.00 | 0.00 | 0.00 | 46 | 1015.1 |
| 20260508151511 | 63 | 317 | 5.2 | 7.8 | 0.00 | 0.00 | 0.00 | 49 | 1015.0 |
| 20260508150055 | 61 | 61 | 6.1 | 9.6 | 0.00 | 0.00 | 0.00 | 53 | 1015.2 |
| 20260508144554 | 60 | 98 | 5.2 | 7.8 | 0.00 | 0.00 | 0.00 | 53 | 1015.2 |
| 20260508143057 | 59 | 38 | 6.1 | 10.4 | 0.00 | 0.00 | 0.00 | 55 | 1015.3 |
| 20260508141600 | 57 | 24 | 2.6 | 9.6 | 0.00 | 0.00 | 0.00 | 58 | 1015.2 |
| 20260508140045 | 56 | 58 | 3.5 | 6.1 | 0.00 | 0.00 | 0.00 | 63 | 1015.3 |
| 20260508134542 | 54 | 51 | 2.6 | 6.1 | 0.00 | 0.00 | 0.00 | 67 | 1015.4 |
| 20260508133037 | 52 | 328 | 0.9 | 3.5 | 0.00 | 0.00 | 0.00 | 72 | 1015.6 |
| 20260508131533 | 50 | 310 | 0.0 | 4.3 | 0.00 | 0.00 | 0.00 | 76 | 1015.6 |
| 20260508130039 | 49 | 292 | 0.9 | 4.3 | 0.00 | 0.00 | 0.00 | 85 | 1015.7 |
| 20260508124536 | 44 | 169 | 0.0 | 0.0 | 0.00 | 0.00 | 0.00 | 95 | 1015.9 |
| 20260508123028 | 42 | 168 | 0.0 | 0.0 | 0.00 | 0.00 | 0.00 | 96 | 1015.7 |
| 20260508121626 | 40 | 167 | 0.0 | 0.0 | 0.00 | 0.00 | 0.00 | 96 | 1015.7 |
| 20260508120029 | 38 | 167 | 0.0 | 0.0 | 0.00 | 0.00 | 0.00 | 96 | 1015.6 |
| 20260508114530 | 37 | 167 | 0.0 | 0.0 | 0.00 | 0.00 | 0.00 | 96 | 1015.6 |
| 20260508113028 | 36 | 167 | 0.0 | 0.0 | 0.00 | 0.00 | 0.00 | 95 | 1015.6 |